| time (UTC) | temp C | wind direction | speed KPH | gust KPH | rain 1hr cm | rain 24hr cm | rain mn cm | humidity % | barometer mb |
| 20260505032312 | 14 | 159 | 0.0 | 3.2 | 0.00 | 0.00 | 0.00 | 41 | 1009.4 |
| 20260505031753 | 14 | 201 | 0.0 | 4.8 | 0.00 | 0.00 | 0.00 | 41 | 1009.4 |
| 20260505031252 | 15 | 209 | 0.0 | 8.0 | 0.00 | 0.00 | 0.00 | 40 | 1009.5 |
| 20260505030751 | 15 | 161 | 0.0 | 3.2 | 0.00 | 0.00 | 0.00 | 40 | 1009.5 |
| 20260505030248 | 15 | 210 | 1.6 | 8.0 | 0.00 | 0.00 | 0.00 | 40 | 1009.5 |
| 20260505030008 | 15 | 184 | 0.0 | 8.0 | 0.00 | 0.00 | 0.00 | 39 | 1009.4 |
| 20260505025807 | 15 | 253 | 1.6 | 8.0 | 0.00 | 0.00 | 0.00 | 39 | 1009.4 |
| 20260505025243 | 15 | 261 | 3.2 | 6.4 | 0.00 | 0.00 | 0.00 | 39 | 1009.5 |
| 20260505024746 | 15 | 211 | 3.2 | 8.0 | 0.00 | 0.00 | 0.00 | 39 | 1009.4 |
| 20260505024246 | 15 | 246 | 3.2 | 8.0 | 0.00 | 0.00 | 0.00 | 39 | 1009.4 |
| 20260505023746 | 15 | 133 | 1.6 | 8.0 | 0.00 | 0.00 | 0.00 | 39 | 1009.4 |
| 20260505023303 | 15 | 229 | 3.2 | 8.0 | 0.00 | 0.00 | 0.00 | 39 | 1009.4 |
| 20260505023025 | 15 | 316 | 0.0 | 8.0 | 0.00 | 0.00 | 0.00 | 39 | 1009.4 |
| 20260505022824 | 15 | 210 | 1.6 | 9.7 | 0.00 | 0.00 | 0.00 | 38 | 1009.4 |
| 20260505022258 | 15 | 216 | 1.6 | 14.5 | 0.00 | 0.00 | 0.00 | 38 | 1009.3 |
| 20260505021759 | 16 | 195 | 1.6 | 14.5 | 0.00 | 0.00 | 0.00 | 38 | 1009.4 |
| 20260505021508 | 15 | 275 | 1.6 | 14.5 | 0.00 | 0.00 | 0.00 | 38 | 1009.5 |
| 20260505021306 | 16 | 282 | 3.2 | 9.7 | 0.00 | 0.00 | 0.00 | 37 | 1009.5 |
| 20260505020807 | 16 | 83 | 3.2 | 8.0 | 0.00 | 0.00 | 0.00 | 38 | 1009.5 |
| 20260505020256 | 16 | 238 | 1.6 | 11.3 | 0.00 | 0.00 | 0.00 | 37 | 1009.5 |
| 20260505020016 | 15 | 259 | 0.0 | 11.3 | 0.00 | 0.00 | 0.00 | 37 | 1009.4 |
| 20260505015815 | 16 | 234 | 1.6 | 11.3 | 0.00 | 0.00 | 0.00 | 37 | 1009.5 |
| 20260505015303 | 16 | 234 | 1.6 | 11.3 | 0.00 | 0.00 | 0.00 | 36 | 1009.2 |
| 20260505014800 | 16 | 158 | 3.2 | 9.7 | 0.00 | 0.00 | 0.00 | 36 | 1009.4 |
| 20260505013756 | 16 | 253 | 1.6 | 3.2 | 0.00 | 0.00 | 0.00 | 35 | 1009.3 |
| 20260505013248 | 16 | 285 | 0.0 | 4.8 | 0.00 | 0.00 | 0.00 | 35 | 1009.1 |
| 20260505012744 | 17 | 188 | 0.0 | 8.0 | 0.00 | 0.00 | 0.00 | 34 | 1009.1 |
| 20260505011759 | 17 | 98 | 3.2 | 14.5 | 0.00 | 0.00 | 0.00 | 33 | 1008.9 |
| 20260505011252 | 17 | 229 | 3.2 | 14.5 | 0.00 | 0.00 | 0.00 | 33 | 1008.7 |
| 20260505010752 | 17 | 223 | 3.2 | 11.3 | 0.00 | 0.00 | 0.00 | 32 | 1008.7 |
| 20260505010304 | 17 | 93 | 1.6 | 14.5 | 0.00 | 0.00 | 0.00 | 32 | 1008.6 |
| 20260505005744 | 17 | 174 | 3.2 | 14.5 | 0.00 | 0.00 | 0.00 | 32 | 1008.5 |
| 20260505005256 | 17 | 267 | 3.2 | 9.7 | 0.00 | 0.00 | 0.00 | 31 | 1008.5 |
| 20260505004757 | 17 | 211 | 0.0 | 1.6 | 0.00 | 0.00 | 0.00 | 31 | 1008.3 |
| 20260505004250 | 17 | 211 | 0.0 | 3.2 | 0.00 | 0.00 | 0.00 | 29 | 1008.1 |
| 20260505003740 | 17 | 227 | 0.0 | 3.2 | 0.00 | 0.00 | 0.00 | 30 | 1008.0 |
| 20260505003259 | 17 | 293 | 0.0 | 3.2 | 0.00 | 0.00 | 0.00 | 29 | 1008.0 |
| 20260505002756 | 17 | 270 | 0.0 | 3.2 | 0.00 | 0.00 | 0.00 | 29 | 1007.8 |
| 20260505002310 | 17 | 232 | 1.6 | 3.2 | 0.00 | 0.00 | 0.00 | 28 | 1007.7 |
| 20260505001750 | 18 | 259 | 0.0 | 3.2 | 0.00 | 0.00 | 0.00 | 28 | 1007.7 |
| 20260505001258 | 18 | 290 | 0.0 | 4.8 | 0.00 | 0.00 | 0.00 | 27 | 1007.6 |
| 20260505000756 | 18 | 300 | 0.0 | 4.8 | 0.00 | 0.00 | 0.00 | 27 | 1007.6 |
| 20260505000311 | 18 | 246 | 0.0 | 4.8 | 0.00 | 0.00 | 0.00 | 27 | 1007.4 |
| 20260505000007 | 18 | 223 | 0.0 | 6.4 | 0.00 | 0.00 | 0.00 | 27 | 1007.4 |
| 20260504235806 | 18 | 146 | 1.6 | 6.4 | 0.00 | 0.00 | 0.00 | 27 | 1007.3 |
| 20260504235300 | 18 | 304 | 1.6 | 6.4 | 0.00 | 0.00 | 0.00 | 27 | 1007.3 |
| 20260504234759 | 18 | 250 | 1.6 | 6.4 | 0.00 | 0.00 | 0.00 | 26 | 1007.2 |
| 20260504234243 | 19 | 158 | 0.0 | 11.3 | 0.00 | 0.00 | 0.00 | 26 | 1007.1 |
| 20260504233804 | 19 | 257 | 3.2 | 11.3 | 0.00 | 0.00 | 0.00 | 25 | 1007.0 |
| 20260504233257 | 19 | 204 | 0.0 | 9.7 | 0.00 | 0.00 | 0.00 | 25 | 1007.1 |
| 20260504233018 | 19 | 253 | 1.6 | 9.7 | 0.00 | 0.00 | 0.00 | 25 | 1007.1 |
| 20260504232818 | 20 | 243 | 3.2 | 9.7 | 0.00 | 0.00 | 0.00 | 24 | 1007.0 |
| 20260504232253 | 20 | 269 | 3.2 | 9.7 | 0.00 | 0.00 | 0.00 | 24 | 1006.8 |
| 20260504231753 | 20 | 211 | 1.6 | 4.8 | 0.00 | 0.00 | 0.00 | 23 | 1006.9 |
| 20260504231244 | 20 | 271 | 1.6 | 14.5 | 0.00 | 0.00 | 0.00 | 24 | 1006.7 |
| 20260504230805 | 20 | 139 | 3.2 | 14.5 | 0.00 | 0.00 | 0.00 | 24 | 1006.7 |
| 20260504230255 | 20 | 236 | 4.8 | 16.1 | 0.00 | 0.00 | 0.00 | 22 | 1006.6 |
| 20260504225754 | 20 | 214 | 4.8 | 14.5 | 0.00 | 0.00 | 0.00 | 22 | 1006.6 |
| 20260504225251 | 20 | 243 | 3.2 | 12.9 | 0.00 | 0.00 | 0.00 | 21 | 1006.5 |
| 20260504224749 | 21 | 214 | 4.8 | 12.9 | 0.00 | 0.00 | 0.00 | 21 | 1006.4 |
| 20260504224247 | 21 | 108 | 3.2 | 14.5 | 0.00 | 0.00 | 0.00 | 21 | 1006.3 |
| 20260504223808 | 21 | 359 | 6.4 | 14.5 | 0.00 | 0.00 | 0.00 | 21 | 1006.3 |
| 20260504223324 | 21 | 184 | 3.2 | 12.9 | 0.00 | 0.00 | 0.00 | 21 | 1006.1 |
| 20260504222756 | 21 | 285 | 3.2 | 16.1 | 0.00 | 0.00 | 0.00 | 20 | 1006.3 |
| 20260504222251 | 21 | 318 | 4.8 | 19.3 | 0.00 | 0.00 | 0.00 | 20 | 1006.2 |
| 20260504221751 | 21 | 121 | 6.4 | 19.3 | 0.00 | 0.00 | 0.00 | 20 | 1006.2 |
| 20260504221249 | 21 | 44 | 3.2 | 19.3 | 0.00 | 0.00 | 0.00 | 20 | 1006.3 |
| 20260504220750 | 22 | 293 | 1.6 | 11.3 | 0.00 | 0.00 | 0.00 | 20 | 1006.3 |
| 20260504220246 | 21 | 295 | 4.8 | 12.9 | 0.00 | 0.00 | 0.00 | 20 | 1006.4 |
| 20260504215745 | 22 | 262 | 6.4 | 12.9 | 0.00 | 0.00 | 0.00 | 19 | 1006.3 |
| 20260504215244 | 22 | 314 | 3.2 | 12.9 | 0.00 | 0.00 | 0.00 | 19 | 1006.4 |
| 20260504214745 | 21 | 236 | 4.8 | 17.7 | 0.00 | 0.00 | 0.00 | 20 | 1006.3 |
| 20260504214503 | 21 | 32 | 4.8 | 17.7 | 0.00 | 0.00 | 0.00 | 20 | 1006.4 |
| 20260504214302 | 21 | 267 | 4.8 | 17.7 | 0.00 | 0.00 | 0.00 | 20 | 1006.4 |
| 20260504213802 | 21 | 275 | 6.4 | 16.1 | 0.00 | 0.00 | 0.00 | 19 | 1006.3 |
| 20260504213257 | 22 | 55 | 4.8 | 12.9 | 0.00 | 0.00 | 0.00 | 19 | 1006.2 |
| 20260504213013 | 21 | 144 | 3.2 | 20.9 | 0.00 | 0.00 | 0.00 | 20 | 1006.4 |
| 20260504212811 | 21 | 150 | 6.4 | 20.9 | 0.00 | 0.00 | 0.00 | 19 | 1006.2 |
| 20260504212248 | 22 | 279 | 4.8 | 24.1 | 0.00 | 0.00 | 0.00 | 20 | 1006.3 |
| 20260504211748 | 21 | 310 | 6.4 | 24.1 | 0.00 | 0.00 | 0.00 | 19 | 1006.3 |
| 20260504211506 | 21 | 264 | 8.0 | 24.1 | 0.00 | 0.00 | 0.00 | 19 | 1006.4 |
| 20260504211305 | 22 | 219 | 6.4 | 17.7 | 0.00 | 0.00 | 0.00 | 19 | 1006.2 |
| 20260504210745 | 22 | 168 | 8.0 | 20.9 | 0.00 | 0.00 | 0.00 | 20 | 1006.3 |
| 20260504210325 | 21 | 249 | 4.8 | 20.9 | 0.00 | 0.00 | 0.00 | 20 | 1006.2 |
| 20260504210002 | 21 | 264 | 6.4 | 17.7 | 0.00 | 0.00 | 0.00 | 20 | 1006.3 |
| 20260504205802 | 21 | 265 | 3.2 | 17.7 | 0.00 | 0.00 | 0.00 | 20 | 1006.3 |
| 20260504205317 | 21 | 352 | 8.0 | 17.7 | 0.00 | 0.00 | 0.00 | 19 | 1006.2 |
| 20260504204752 | 21 | 69 | 4.8 | 19.3 | 0.00 | 0.00 | 0.00 | 19 | 1006.2 |
| 20260504204249 | 22 | 257 | 8.0 | 20.9 | 0.00 | 0.00 | 0.00 | 20 | 1006.2 |
| 20260504203809 | 22 | 312 | 8.0 | 20.9 | 0.00 | 0.00 | 0.00 | 18 | 1006.2 |
| 20260504203246 | 22 | 143 | 6.4 | 16.1 | 0.00 | 0.00 | 0.00 | 20 | 1006.3 |
| 20260504202746 | 21 | 345 | 3.2 | 14.5 | 0.00 | 0.00 | 0.00 | 21 | 1006.2 |
| 20260504202243 | 21 | 192 | 6.4 | 24.1 | 0.00 | 0.00 | 0.00 | 19 | 1006.3 |
| 20260504201807 | 21 | 243 | 4.8 | 24.1 | 0.00 | 0.00 | 0.00 | 19 | 1006.3 |
| 20260504201244 | 22 | 255 | 6.4 | 17.7 | 0.00 | 0.00 | 0.00 | 18 | 1006.4 |
| 20260504200804 | 22 | 107 | 4.8 | 11.3 | 0.00 | 0.00 | 0.00 | 20 | 1006.4 |
| 20260504200258 | 22 | 315 | 3.2 | 14.5 | 0.00 | 0.00 | 0.00 | 19 | 1006.3 |
| 20260504195756 | 22 | 238 | 4.8 | 14.5 | 0.00 | 0.00 | 0.00 | 21 | 1006.4 |
| 20260504195252 | 22 | 124 | 4.8 | 12.9 | 0.00 | 0.00 | 0.00 | 19 | 1006.2 |
| 20260504194750 | 22 | 253 | 4.8 | 20.9 | 0.00 | 0.00 | 0.00 | 20 | 1006.4 |
| 20260504194248 | 22 | 259 | 8.0 | 20.9 | 0.00 | 0.00 | 0.00 | 18 | 1006.3 |
| 20260504193748 | 22 | 114 | 6.4 | 19.3 | 0.00 | 0.00 | 0.00 | 18 | 1006.2 |
| 20260504193246 | 22 | 270 | 8.0 | 19.3 | 0.00 | 0.00 | 0.00 | 21 | 1006.4 |
| 20260504192745 | 22 | 279 | 8.0 | 19.3 | 0.00 | 0.00 | 0.00 | 18 | 1006.3 |
| 20260504192304 | 22 | 1 | 4.8 | 17.7 | 0.00 | 0.00 | 0.00 | 18 | 1006.3 |
| 20260504191743 | 22 | 218 | 4.8 | 29.0 | 0.00 | 0.00 | 0.00 | 19 | 1006.3 |
| 20260504191257 | 22 | 297 | 6.4 | 29.0 | 0.00 | 0.00 | 0.00 | 18 | 1006.3 |
| 20260504190756 | 22 | 230 | 6.4 | 19.3 | 0.00 | 0.00 | 0.00 | 19 | 1006.5 |
| 20260504190248 | 22 | 274 | 4.8 | 29.0 | 0.00 | 0.00 | 0.00 | 18 | 1006.5 |
| 20260504185748 | 22 | 155 | 12.9 | 29.0 | 0.00 | 0.00 | 0.00 | 17 | 1006.5 |
| 20260504185244 | 22 | 84 | 6.4 | 29.0 | 0.00 | 0.00 | 0.00 | 18 | 1006.3 |
| 20260504184745 | 22 | 243 | 6.4 | 22.5 | 0.00 | 0.00 | 0.00 | 17 | 1006.5 |
| 20260504184243 | 22 | 231 | 3.2 | 22.5 | 0.00 | 0.00 | 0.00 | 18 | 1006.4 |
| 20260504183754 | 22 | 351 | 4.8 | 17.7 | 0.00 | 0.00 | 0.00 | 18 | 1006.5 |
| 20260504183312 | 21 | 297 | 6.4 | 17.7 | 0.00 | 0.00 | 0.00 | 18 | 1006.6 |
| 20260504183013 | 21 | 226 | 4.8 | 19.3 | 0.00 | 0.00 | 0.00 | 19 | 1006.7 |
| 20260504182811 | 21 | 274 | 4.8 | 19.3 | 0.00 | 0.00 | 0.00 | 18 | 1006.5 |
| 20260504182248 | 21 | 144 | 3.2 | 22.5 | 0.00 | 0.00 | 0.00 | 19 | 1006.6 |
| 20260504181804 | 21 | 271 | 9.7 | 22.5 | 0.00 | 0.00 | 0.00 | 18 | 1006.9 |
| 20260504181257 | 21 | 335 | 8.0 | 24.1 | 0.00 | 0.00 | 0.00 | 18 | 1006.4 |
| 20260504180757 | 21 | 286 | 9.7 | 24.1 | 0.00 | 0.00 | 0.00 | 18 | 1006.6 |
| 20260504180252 | 21 | 273 | 3.2 | 19.3 | 0.00 | 0.00 | 0.00 | 20 | 1006.9 |
| 20260504175754 | 21 | 96 | 8.0 | 19.3 | 0.00 | 0.00 | 0.00 | 17 | 1006.8 |
| 20260504175311 | 21 | 244 | 8.0 | 22.5 | 0.00 | 0.00 | 0.00 | 17 | 1006.7 |
| 20260504174752 | 21 | 240 | 6.4 | 22.5 | 0.00 | 0.00 | 0.00 | 17 | 1006.9 |
| 20260504174250 | 21 | 244 | 6.4 | 27.4 | 0.00 | 0.00 | 0.00 | 17 | 1006.8 |
| 20260504173748 | 21 | 278 | 8.0 | 27.4 | 0.00 | 0.00 | 0.00 | 18 | 1006.9 |
| 20260504173246 | 20 | 235 | 4.8 | 20.9 | 0.00 | 0.00 | 0.00 | 18 | 1006.9 |
| 20260504172747 | 20 | 231 | 8.0 | 19.3 | 0.00 | 0.00 | 0.00 | 18 | 1007.0 |
| 20260504172320 | 20 | 102 | 8.0 | 19.3 | 0.00 | 0.00 | 0.00 | 19 | 1007.0 |
| 20260504171758 | 20 | 196 | 8.0 | 19.3 | 0.00 | 0.00 | 0.00 | 20 | 1007.2 |
| 20260504171254 | 20 | 224 | 6.4 | 16.1 | 0.00 | 0.00 | 0.00 | 19 | 1007.4 |
| 20260504170755 | 20 | 286 | 6.4 | 27.4 | 0.00 | 0.00 | 0.00 | 21 | 1007.2 |
| 20260504170253 | 20 | 240 | 9.7 | 27.4 | 0.00 | 0.00 | 0.00 | 20 | 1007.4 |
| 20260504160243 | 18 | 158 | 6.4 | 22.5 | 0.00 | 0.00 | 0.00 | 22 | 1007.7 |
| 20260504150742 | 18 | 226 | 6.4 | 20.9 | 0.00 | 0.00 | 0.00 | 24 | 1008.3 |
| 20260504150253 | 17 | 254 | 8.0 | 20.9 | 0.00 | 0.00 | 0.00 | 24 | 1008.3 |
| 20260504141251 | 16 | 311 | 3.2 | 16.1 | 0.00 | 0.00 | 0.00 | 29 | 1009.0 |
| 20260504140752 | 16 | 253 | 3.2 | 9.7 | 0.00 | 0.00 | 0.00 | 30 | 1009.2 |
| 20260504140249 | 16 | 302 | 3.2 | 12.9 | 0.00 | 0.00 | 0.00 | 29 | 1009.1 |
| 20260504130802 | 12 | 248 | 3.2 | 14.5 | 0.00 | 0.05 | 0.00 | 37 | 1009.4 |
| 20260504130256 | 12 | 312 | 3.2 | 11.3 | 0.00 | 0.05 | 0.00 | 37 | 1009.6 |
| 20260504120247 | 11 | 51 | 3.2 | 12.9 | 0.00 | 0.05 | 0.00 | 40 | 1009.7 |
| 20260504110304 | 6 | 184 | 0.0 | 0.0 | 0.00 | 0.05 | 0.00 | 56 | 1009.7 |
| 20260504100314 | 7 | 177 | 0.0 | 3.2 | 0.00 | 0.05 | 0.00 | 47 | 1009.7 |
| 20260504081753 | 7 | 305 | 1.6 | 6.4 | 0.00 | 0.05 | 0.00 | 46 | 1009.9 |
| 20260504081250 | 7 | 200 | 0.0 | 4.8 | 0.00 | 0.05 | 0.00 | 47 | 1009.8 |
| 20260504080807 | 7 | 274 | 0.0 | 1.6 | 0.00 | 0.05 | 0.00 | 46 | 1009.8 |
| 20260504080243 | 7 | 281 | 0.0 | 1.6 | 0.00 | 0.05 | 0.00 | 44 | 1009.8 |
| 20260504070321 | 7 | 250 | 0.0 | 1.6 | 0.00 | 0.05 | 0.00 | 42 | 1009.8 |
| 20260504060239 | 5 | 282 | 0.0 | 1.6 | 0.00 | 0.05 | 0.00 | 47 | 1009.9 |
| 20260504050748 | 4 | 238 | 1.6 | 4.8 | 0.00 | 0.05 | 0.00 | 55 | 1009.9 |
| 20260504050300 | 3 | 115 | 0.0 | 6.4 | 0.00 | 0.05 | 0.00 | 55 | 1010.0 |
| 20260504045758 | 3 | 180 | 0.0 | 6.4 | 0.00 | 0.05 | 0.00 | 54 | 1010.0 |
| 20260504045253 | 3 | 264 | 0.0 | 8.0 | 0.00 | 0.05 | 0.00 | 55 | 1010.0 |
| 20260504044753 | 3 | 247 | 0.0 | 8.0 | 0.00 | 0.05 | 0.00 | 54 | 1010.0 |
| 20260504044247 | 3 | 330 | 1.6 | 3.2 | 0.00 | 0.05 | 0.00 | 56 | 1010.1 |
| 20260504043747 | 2 | 250 | 0.0 | 1.6 | 0.00 | 0.05 | 0.00 | 58 | 1010.0 |
| 20260504043245 | 2 | 256 | 0.0 | 1.6 | 0.00 | 0.05 | 0.00 | 58 | 1010.1 |
| 20260504043009 | 2 | 245 | 0.0 | 1.6 | 0.00 | 0.05 | 0.00 | 57 | 1010.4 |
| 20260504042808 | 3 | 246 | 0.0 | 1.6 | 0.00 | 0.05 | 0.00 | 58 | 1010.0 |
| 20260504042243 | 3 | 245 | 1.6 | 1.6 | 0.00 | 0.05 | 0.00 | 57 | 1010.0 |
| 20260504041741 | 3 | 251 | 0.0 | 1.6 | 0.00 | 0.05 | 0.00 | 56 | 1010.0 |
| 20260504041254 | 3 | 244 | 0.0 | 3.2 | 0.00 | 0.05 | 0.00 | 55 | 1009.9 |
| 20260504040755 | 3 | 231 | 0.0 | 3.2 | 0.00 | 0.05 | 0.00 | 55 | 1009.8 |
| 20260504040310 | 2 | 248 | 0.0 | 1.6 | 0.00 | 0.05 | 0.00 | 56 | 1009.8 |
| 20260504040029 | 2 | 245 | 0.0 | 1.6 | 0.00 | 0.05 | 0.05 | 56 | 1010.2 |
| 20260504035810 | 3 | 250 | 0.0 | 1.6 | 0.00 | 0.05 | 0.05 | 56 | 1009.9 |
| 20260504035246 | 3 | 250 | 0.0 | 1.6 | 0.00 | 0.05 | 0.05 | 57 | 1009.9 |
| 20260504034748 | 3 | 251 | 0.0 | 1.6 | 0.00 | 0.05 | 0.05 | 54 | 1009.8 |
| 20260504034507 | 3 | 251 | 0.0 | 1.6 | 0.00 | 0.05 | 0.05 | 54 | 1010.3 |
| 20260504034306 | 3 | 251 | 0.0 | 1.6 | 0.00 | 0.05 | 0.05 | 54 | 1009.7 |
| 20260504033746 | 3 | 251 | 0.0 | 1.6 | 0.00 | 0.05 | 0.05 | 55 | 1009.8 |
| 20260504033243 | 3 | 251 | 0.0 | 1.6 | 0.00 | 0.05 | 0.05 | 53 | 1009.8 |
| 20260504032744 | 3 | 251 | 0.0 | 1.6 | 0.00 | 0.05 | 0.05 | 52 | 1009.9 |